Juneau, AK

3:44 AM AKST on November 21, 2017 (GMT -0900)
Juneau International

Weather History for PAJN - June, 2014

Change the Weather History Date:

Sunday, June 15, 2014

  Actual Average Record
Temperature  
Mean Temperature 55 °F 55 °F  
Max Temperature 62 °F 62 °F 83 °F (1969)
Min Temperature 47 °F 47 °F 37 °F (1973)
Degree Days  
Heating Degree Days 10 10  
Month to date heating degree days 156 169  
Since 1 June heating degree days 156 169  
Since 1 July heating degree days 7928 8205  
Cooling Degree Days 0 0  
Month to date cooling degree days 0 0  
Year to date cooling degree days 0 0  
Since 1 June cooling degree days 0 0  
Growing Degree Days 4 (Base 50)    
Moisture  
Dew Point 43 °F    
Average Humidity 69    
Maximum Humidity 86    
Minimum Humidity 51    
Precipitation  
Precipitation T in 0.10 in 0.69 in (1983)
Month to date precipitation 3.19 1.60  
Year to date precipitation 23.11 21.20  
Sea Level Pressure  
Sea Level Pressure 29.86 in    
Wind  
Wind Speed 8 mph (SW)    
Max Wind Speed 14 mph    
Max Gust Speed 16 mph    
Visibility 10 miles    
Events Rain    
T = Trace of Precipitation, MM = Missing Value Source: NWS Daily Summary

Daily Weather History Graph

Daily Weather History Graph

Search for Another Location

Airport or City:

Trip Planner

Search our weather history database for the weather conditions in past years. The results will help you decide how hot, cold, wet, or windy it might be!

Date:

Astronomy

Jun. 15, 2014 Rise Set
Actual Time 3:51 AM AKDT 10:06 PM AKDT
Civil Twilight 2:33 AM AKDT 11:25 PM AKDT
Nautical Twilight Sun does not rise Sun does not rise
Astronomical Twilight Sun does not rise Sun does not rise
Moon 11:30 PM AKDT (6/15) 7:35 AM AKDT (6/15)
Length of Visible Light 20h 51m
Length of Day
18h 15m
Waning Gibbous, 90% of the Moon is Illuminated
Jun 15
Waning Gibbous
Jun 19
Last Quarter
Jun 27
New
Jul 5
First Quarter
Jul 12
Full

Hourly Weather History & Observations

Time (AKDT) Temp. Dew Point Humidity Pressure Visibility Wind Dir Wind Speed Gust Speed Precip Events Conditions
12:53 AM 48.0 °F 45.0 °F 89% 29.84 in 10.0 mi East 8.1 mph - N/A   Mostly Cloudy
1:53 AM 48.0 °F 44.1 °F 86% 29.84 in 10.0 mi East 9.2 mph - N/A   Mostly Cloudy
2:53 AM 48.0 °F 44.1 °F 86% 29.84 in 10.0 mi ENE 4.6 mph - N/A   Mostly Cloudy
3:53 AM 48.9 °F 44.1 °F 83% 29.84 in 10.0 mi ENE 9.2 mph - N/A   Mostly Cloudy
4:53 AM 48.0 °F 44.1 °F 86% 29.85 in 10.0 mi South 5.8 mph - N/A   Mostly Cloudy
5:53 AM 48.0 °F 45.0 °F 89% 29.85 in 10.0 mi ESE 4.6 mph - N/A   Mostly Cloudy
6:53 AM 48.9 °F 44.1 °F 83% 29.86 in 10.0 mi Calm Calm - N/A   Mostly Cloudy
7:53 AM 52.0 °F 43.0 °F 71% 29.86 in 10.0 mi West 4.6 mph - N/A   Mostly Cloudy
8:53 AM 52.0 °F 44.1 °F 74% 29.86 in 10.0 mi Calm Calm - 0.00 in Rain Light Rain
9:53 AM 55.0 °F 44.1 °F 67% 29.86 in 10.0 mi Calm Calm - 0.00 in   Mostly Cloudy
10:53 AM 55.9 °F 46.0 °F 69% 29.86 in 10.0 mi WSW 11.5 mph - N/A   Mostly Cloudy
11:53 AM 55.9 °F 44.1 °F 64% 29.87 in 10.0 mi West 9.2 mph - 0.00 in Rain Light Rain
12:53 PM 55.9 °F 43.0 °F 62% 29.87 in 10.0 mi SW 11.5 mph - 0.00 in   Mostly Cloudy
1:53 PM 57.9 °F 43.0 °F 58% 29.87 in 10.0 mi WSW 11.5 mph - N/A   Mostly Cloudy
2:53 PM 60.1 °F 42.1 °F 51% 29.86 in 10.0 mi WSW 13.8 mph - N/A   Scattered Clouds
3:53 PM 61.0 °F 44.1 °F 54% 29.86 in 10.0 mi WSW 12.7 mph - N/A   Scattered Clouds
4:53 PM 62.1 °F 42.1 °F 48% 29.86 in 10.0 mi WSW 11.5 mph - N/A   Scattered Clouds
5:53 PM 61.0 °F 42.1 °F 50% 29.85 in 10.0 mi SW 10.4 mph - N/A   Scattered Clouds
6:53 PM 62.1 °F 41.0 °F 46% 29.86 in 10.0 mi West 8.1 mph - N/A   Scattered Clouds
7:53 PM 60.1 °F 39.9 °F 47% 29.86 in 10.0 mi West 6.9 mph - N/A   Partly Cloudy
8:53 PM 57.9 °F 39.9 °F 51% 29.87 in 10.0 mi WNW 9.2 mph - N/A   Clear
9:53 PM 51.1 °F 43.0 °F 74% 29.90 in 10.0 mi East 4.6 mph - N/A   Clear
10:53 PM 48.0 °F 43.0 °F 83% 29.91 in 10.0 mi Calm Calm - N/A   Partly Cloudy
11:53 PM 46.9 °F 43.0 °F 86% 29.92 in 10.0 mi Calm Calm - N/A   Partly Cloudy